CAPE
0 0 0 1 93 0 0 0 0 64 0 8 4 0 0 151 163 243 190 41 13 8 1 8 22 0 63 17 18 194 572 762 732 665 724 816 980 1028 917 752 830 1306 1063 1071
0 0 0 0 0 0 1 0 0 18 24 59 0 0 3 84 249 276 248 146 96 13 0 4 65 57 52 215 247 286 600 1127 1239 884 961 848 915 908 987 933 1112 1380 1182 1102
0 0 0 0 0 0 1 0 0 0 0 0 0 1 70 447 457 357 306 291 259 146 0 0 65 137 83 149 429 475 880 1115 1375 907 925 1005 869 1098 1125 1120 1215 1347 1230 1147
0 0 0 0 0 0 0 0 0 0 0 0 0 0 0 188 567 560 495 377 332 316 155 63 52 150 169 165 237 576 812 1174 1393 1308 1150 1154 952 920 827 991 927 942 1182 1060
0 0 0 0 0 0 0 0 0 0 0 0 0 0 2 0 12 116 224 331 301 289 260 144 120 60 157 118 217 492 970 1179 1213 1477 1343 1263 1439 1010 825 809 1102 1524 1486 1243
0 0 0 0 0 0 0 0 0 0 0 0 0 0 2 17 0 20 7 75 169 209 245 237 159 105 111 148 169 345 1379 1832 1435 1397 1634 1548 1870 1679 1091 1310 991 1139 855 1073
0 0 0 0 0 0 0 0 0 0 0 0 0 0 0 4 0 0 0 0 0 5 68 116 276 206 181 225 202 297 1296 1599 1483 1337 1514 1552 1787 1915 1889 1620 1122 1509 560 533
0 0 0 0 0 0 0 0 0 0 0 0 0 0 0 0 0 0 0 0 0 0 18 89 55 246 251 276 363 367 674 1766 1523 1339 1705 2273 2493 1704 1699 2017 1116 806 576 534
0 0 0 0 0 0 0 0 0 0 0 0 0 0 0 0 0 0 0 0 0 0 0 48 354 260 214 314 483 495 758 1238 1615 1325 1734 2691 2774 2525 1692 2565 2372 1244 2010 553
0 0 0 0 0 0 0 0 0 0 0 0 0 0 0 0 0 0 0 0 0 0 0 0 99 972 802 205 410 565 656 1001 1378 1222 1599 1912 2049 2364 2444 2062 2329 2318 1759 2081
0 0 0 0 0 0 0 0 0 0 0 0 0 0 0 0 0 0 0 0 0 0 0 0 28 449 1321 319 289 599 726 864 1276 1945 1843 2295 1976 2097 1968 1565 2033 2280 2018 2474
0 0 0 0 0 0 0 0 0 0 0 0 0 0 0 0 0 0 0 0 0 0 0 0 24 353 1167 458 323 516 759 996 1724 2241 2659 2110 1681 1767 1540 1786 1806 1951 2207 2258
0 0 0 0 0 0 0 0 0 0 0 0 0 0 0 0 0 0 0 0 0 0 0 2 80 520 1494 666 477 532 750 906 1022 2065 1678 1520 1429 1377 1284 1273 1703 1984 2176 1998
0 0 0 0 0 0 0 0 0 0 0 0 0 0 0 0 0 0 0 0 0 0 0 13 245 392 1298 1273 656 699 764 918 1015 1317 1501 1839 1390 1362 1229 1855 2183 2235 2795 2358
0 0 0 0 0 0 0 0 0 0 0 0 0 0 0 0 0 0 0 0 0 0 0 22 226 468 630 1421 742 739 944 988 1066 1780 1462 2058 2078 2241 2146 2345 2525 2720 2924 2498
0 0 0 0 0 0 0 0 0 0 0 0 0 0 0 0 0 0 2 1 0 0 0 60 158 453 421 806 1321 729 990 1087 1300 1395 1555 2313 2528 2637 2913 3083 3225 3647 3435 3659
0 0 0 0 0 0 0 0 0 0 0 0 0 0 0 0 0 0 10 14 0 0 27 104 232 410 521 789 1033 1171 911 913 1122 1314 1715 1970 2508 1965 2155 2392 2616 3154 3525 3754
0 0 0 0 0 0 0 0 0 0 0 0 0 0 3 15 26 16 33 11 32 19 6 7 66 499 592 427 934 1441 1162 910 782 1098 1568 1675 1675 1817 1781 1606 2186 3043 2694 3155
0 0 0 0 0 0 0 0 0 9 0 0 1 0 2 10 3 0 8 111 28 0 0 2 1 252 565 368 588 873 1601 1322 1235 1641 1764 1498 1379 1822 1419 1342 1711 1871 2821 3151
0 0 0 0 0 0 3 0 0 1 0 46 1 1 6 9 1 4 45 39 38 5 0 0 0 0 20 489 571 600 1566 1733 1719 1903 1847 2056 2261 1577 1350 1432 2206 2558 2185 2881
0 2 3 9 16 22 35 1 0 45 88 51 15 5 3 4 12 4 3 44 121 40 9 7 3 0 26 276 606 589 1874 2294 1678 1847 2159 1967 1871 2067 2362 2201 1460 1571 2269 2401
0 3 17 23 61 105 46 46 92 132 88 55 25 19 21 43 7 21 63 162 202 94 20 20 84 2 3 64 286 462 1067 881 801 1321 1454 1207 1012 928 780 693 630 505 535 911
1 2 51 74 156 178 98 205 202 102 122 99 90 102 122 108 182 148 168 274 255 101 27 23 1 33 0 58 227 631 821 957 533 474 616 532 611 696 637 516 387 381 328 246
16 35 44 29 95 123 213 225 236 306 311 121 295 307 223 414 384 492 414 416 203 44 31 0 5 0 0 125 202 364 536 665 808 917 903 750 561 368 374 367 191 93 140 41
5 118 128 159 227 222 171 256 410 32 93 243 175 156 396 506 587 532 309 204 130 4 0 0 0 0 0 95 283 323 472 550 560 507 493 302 259 19 12 0 6 88 55 80
46 125 215 135 151 305 245 332 56 56 63 200 248 321 308 222 150 42 30 25 12 0 0 0 0 1 1 0 190 74 97 100 92 30 18 34 18 238 41 6 11 25 40 80
CIN
-0 -0 -0 -1 -52 -0 -0 -0 -0 -46 -0 -1 -2 -0 -0 -79 -52 -32 -39 -66 -128 -168 -181 -139 -87 -0 -49 -72 -75 -17 -5 -1 -0 -1 -0 -0 -0 -0 -0 -0 -0 -0 -1 -5
-0 -0 -0 -0 -0 -0 -1 -0 -0 -54 -83 -67 -0 -0 -35 -28 -51 -46 -41 -65 -62 -146 -0 -44 -87 -78 -79 -22 -17 -21 -6 -0 -0 -0 -0 -0 -1 -1 -0 -0 -0 -0 -4 -4
-0 -0 -0 -0 -0 -0 -1 -0 -0 -0 -0 -0 -0 -8 -42 -22 -33 -50 -41 -43 -58 -76 -0 -0 -123 -83 -76 -46 -17 -17 -9 -0 -0 -0 -0 -0 -0 -0 -0 -0 -0 -0 -2 -7
-0 -0 -0 -0 -0 -0 -0 -0 -0 -0 -0 -0 -0 -0 -0 -15 -12 -31 -37 -41 -50 -67 -101 -67 -140 -103 -105 -75 -47 -18 -24 -7 -0 -0 -0 -0 -0 -0 -0 -0 -0 -0 -3 -4
-0 -0 -0 -0 -0 -0 -0 -0 -0 -0 -0 -0 -0 -0 -1 -0 -6 -9 -30 -20 -23 -41 -48 -85 -56 -131 -79 -69 -53 -40 -19 -17 -5 -0 -0 -0 -0 -0 -0 -0 -0 -0 -0 -2
-0 -0 -0 -0 -0 -0 -0 -0 -0 -0 -0 -0 -0 -0 -0 -0 -0 -0 -9 -28 -52 -47 -66 -78 -82 -61 -87 -77 -81 -48 -11 -13 -18 -6 -2 -0 -0 -0 -0 -0 -0 -0 -3 -2
-0 -0 -0 -0 -0 -0 -0 -0 -0 -0 -0 -0 -0 -0 -0 -0 -0 -0 -0 -0 -0 -65 -85 -102 -79 -86 -75 -81 -89 -78 -13 -26 -23 -18 -5 -1 -0 -0 -0 -0 -0 -0 -8 -14
-0 -0 -0 -0 -0 -0 -0 -0 -0 -0 -0 -0 -0 -0 -0 -0 -0 -0 -0 -0 -0 -0 -131 -138 -147 -82 -97 -85 -60 -74 -60 -28 -32 -30 -13 -1 -0 -0 -0 -0 -0 -0 -3 -12
-0 -0 -0 -0 -0 -0 -0 -0 -0 -0 -0 -0 -0 -0 -0 -0 -0 -0 -0 -0 -0 -0 -0 -145 -109 -75 -97 -125 -101 -75 -51 -52 -41 -37 -23 -0 -0 -0 -0 -0 -0 -0 -0 -1
-0 -0 -0 -0 -0 -0 -0 -0 -0 -0 -0 -0 -0 -0 -0 -0 -0 -0 -0 -0 -0 -0 -0 -0 -176 -96 -71 -123 -131 -93 -64 -59 -53 -51 -31 -18 -12 -2 -0 -0 -0 -0 -0 -0
-0 -0 -0 -0 -0 -0 -0 -0 -0 -0 -0 -0 -0 -0 -0 -0 -0 -0 -0 -0 -0 -0 -0 -0 -196 -151 -63 -106 -157 -139 -112 -67 -57 -32 -32 -18 -20 -11 -12 -5 -0 -0 -0 -0
-0 -0 -0 -0 -0 -0 -0 -0 -0 -0 -0 -0 -0 -0 -0 -0 -0 -0 -0 -0 -0 -0 -0 -0 -235 -203 -89 -120 -165 -142 -106 -81 -41 -32 -15 -48 -36 -27 -20 -11 -1 -0 -0 -0
-0 -0 -0 -0 -0 -0 -0 -0 -0 -0 -0 -0 -0 -0 -0 -0 -0 -0 -0 -0 -0 -0 -0 -65 -263 -186 -93 -86 -138 -143 -100 -81 -56 -39 -71 -52 -43 -37 -31 -23 -7 -0 -0 -0
-0 -0 -0 -0 -0 -0 -0 -0 -0 -0 -0 -0 -0 -0 -0 -0 -0 -0 -0 -0 -0 -0 -0 -154 -188 -207 -61 -71 -109 -114 -105 -64 -39 -50 -69 -52 -52 -49 -50 -15 -2 -3 -0 -0
-0 -0 -0 -0 -0 -0 -0 -0 -0 -0 -0 -0 -0 -0 -0 -0 -0 -0 -0 -0 -0 -0 -0 -134 -149 -161 -175 -53 -110 -89 -69 -50 -30 -8 -39 -33 -44 -28 -24 -4 -1 -0 -0 -0
-0 -0 -0 -0 -0 -0 -0 -0 -0 -0 -0 -0 -0 -0 -0 -0 -0 -0 -0 -0 -0 -0 -0 -164 -113 -105 -199 -121 -45 -136 -37 -12 -4 -5 -28 -16 -17 -11 -0 -0 -0 -0 -0 -0
-0 -0 -0 -0 -0 -0 -0 -0 -0 -0 -0 -0 -0 -0 -0 -0 -0 -0 -0 -0 -0 -0 -63 -110 -57 -63 -119 -99 -76 -48 -53 -11 -6 -0 -0 -4 -2 -29 -17 -5 -0 -0 -0 -0
-0 -0 -0 -0 -0 -0 -0 -0 -0 -0 -0 -0 -0 -0 -1 -0 -0 -0 -0 -0 -0 -70 -0 -0 -120 -11 -35 -130 -62 -17 -2 -68 -108 -25 -1 -7 -4 -2 -4 -9 -0 -0 -0 -0
-0 -0 -0 -0 -0 -0 -0 -0 -0 -0 -0 -0 -0 -0 -0 -0 -0 -0 -0 -16 -1 -0 -0 -0 -0 -30 -18 -97 -103 -60 -2 -9 -6 -5 -0 -2 -31 -16 -65 -62 -2 -3 -0 -0
-0 -0 -0 -0 -0 -0 -0 -0 -0 -0 -0 -5 -0 -0 -0 -0 -0 -0 -2 -22 -6 -4 -0 -0 -0 -0 -12 -39 -52 -76 -16 -21 -13 -7 -11 -0 -0 -0 -40 -81 -12 -0 -0 -0
-0 -0 -0 -0 -0 -0 -2 -6 -0 -6 -0 -17 -8 -0 -0 -0 -0 -0 -0 -18 -0 -17 -0 -0 -0 -0 -60 -45 -17 -33 -0 -0 -6 -14 -0 -0 -0 -0 -0 -0 -4 -0 -0 -0
-0 -0 -0 -3 -3 -0 -13 -7 -3 -0 -2 -8 -40 -55 -32 -28 -2 -1 -2 -0 -0 -4 -0 -0 -37 -0 -18 -64 -50 -40 -0 -12 -48 -9 -1 -5 -0 -0 -3 -0 -16 -61 -0 -0
-0 -0 -1 -0 -0 -1 -2 -0 -0 -3 -5 -27 -24 -2 -1 -1 -0 -0 -0 -0 -0 -0 -0 -0 -0 -0 -0 -34 -22 -0 -0 -0 -42 -73 -52 -46 -4 -0 -4 -31 -12 -0 -0 -0
-0 -2 -2 -14 -0 -0 -0 -0 -0 -0 -0 -7 -0 -0 -0 -0 -0 -0 -0 -0 -0 -24 -0 -0 -0 -0 -0 -18 -2 -0 -0 -0 -0 -0 -0 -0 -1 -0 -0 -0 -0 -25 -55 -28
-0 -3 -0 -0 -0 -0 -0 -0 -0 -31 -18 -0 -3 -18 -0 -0 -0 -0 -0 -0 -21 -0 -0 -0 -0 -0 -0 -0 -0 -0 -0 -0 -0 -0 -0 -1 -9 -22 -14 -0 -0 -23 -18 -4
-0 -0 -0 -0 -0 -0 -0 -0 -28 -2 -1 -0 -0 -0 -0 -0 -1 -16 -0 -0 -0 -0 -0 -0 -0 -0 -1 -0 -0 -0 -4 -2 -4 -27 -81 -50 -23 -0 -34 -6 -1 -3 -1 -10
Wind_Speed
nan nan nan nan nan nan nan nan nan nan nan nan nan nan nan 14 12 16 14 nan nan nan nan nan nan nan nan nan nan 3 2 8 10 11 13 18 23 23 21 18 14 11 12 8
nan nan nan nan nan nan nan nan nan nan nan nan nan nan nan nan 13 18 15 13 nan nan nan nan nan nan nan 9 5 3 6 4 8 11 18 23 25 24 22 16 10 12 10 8
nan nan nan nan nan nan nan nan nan nan nan nan nan nan nan 12 7 14 14 15 12 8 nan nan nan 7 nan 7 6 3 4 4 7 10 17 21 22 23 18 15 12 9 8 7
nan nan nan nan nan nan nan nan nan nan nan nan nan nan nan 17 9 8 12 14 12 9 5 nan nan 3 4 4 3 3 1 2 5 7 15 17 20 20 20 18 15 10 6 4
nan nan nan nan nan nan nan nan nan nan nan nan nan nan nan nan nan 14 13 13 11 12 7 5 5 nan 3 1 2 2 1 4 5 8 13 16 18 20 19 16 13 10 7 3
nan nan nan nan nan nan nan nan nan nan nan nan nan nan nan nan nan nan nan nan 16 13 13 9 8 8 8 3 3 5 5 4 6 10 9 13 16 20 20 17 16 14 11 9
nan nan nan nan nan nan nan nan nan nan nan nan nan nan nan nan nan nan nan nan nan nan nan 14 15 10 10 6 7 6 9 7 8 8 9 11 15 17 19 20 19 17 16 13
nan nan nan nan nan nan nan nan nan nan nan nan nan nan nan nan nan nan nan nan nan nan nan nan nan 18 15 13 8 8 10 11 10 10 10 12 13 20 20 19 20 20 19 19
nan nan nan nan nan nan nan nan nan nan nan nan nan nan nan nan nan nan nan nan nan nan nan nan 29 19 18 18 11 10 11 13 12 13 15 16 17 15 18 18 20 22 20 20
nan nan nan nan nan nan nan nan nan nan nan nan nan nan nan nan nan nan nan nan nan nan nan nan nan 31 17 19 19 15 15 14 14 14 17 20 18 18 19 22 21 20 20 19
nan nan nan nan nan nan nan nan nan nan nan nan nan nan nan nan nan nan nan nan nan nan nan nan nan 45 31 19 20 19 17 20 18 18 20 20 21 21 21 19 21 21 21 22
nan nan nan nan nan nan nan nan nan nan nan nan nan nan nan nan nan nan nan nan nan nan nan nan nan 51 47 26 23 19 21 20 23 24 24 23 22 23 22 22 23 24 25 24
nan nan nan nan nan nan nan nan nan nan nan nan nan nan nan nan nan nan nan nan nan nan nan nan nan 55 58 36 28 24 23 20 22 26 26 25 25 24 20 21 24 26 28 26
nan nan nan nan nan nan nan nan nan nan nan nan nan nan nan nan nan nan nan nan nan nan nan nan 62 60 54 48 34 29 27 25 26 24 25 26 25 25 25 25 27 27 29 29
nan nan nan nan nan nan nan nan nan nan nan nan nan nan nan nan nan nan nan nan nan nan nan nan 64 63 61 54 44 34 31 31 29 32 28 29 27 30 32 31 30 31 32 30
nan nan nan nan nan nan nan nan nan nan nan nan nan nan nan nan nan nan nan nan nan nan nan nan 59 65 62 60 54 45 33 36 35 31 30 29 34 36 36 35 34 33 34 34
nan nan nan nan nan nan nan nan nan nan nan nan nan nan nan nan nan nan nan nan nan nan nan 43 46 61 64 58 57 53 44 35 44 40 35 35 36 36 38 38 38 35 32 33
nan nan nan nan nan nan nan nan nan nan nan nan nan nan nan nan nan nan nan nan nan nan nan nan nan 49 63 65 60 58 56 55 55 41 32 35 39 40 42 45 39 38 37 37
nan nan nan nan nan nan nan nan nan nan nan nan nan nan nan nan nan nan nan 59 nan nan nan nan nan 48 56 66 67 61 59 60 46 42 42 37 43 47 50 43 38 36 42 40
nan nan nan nan nan nan nan nan nan nan nan nan nan nan nan nan nan nan nan nan nan nan nan nan nan nan nan 57 70 65 61 58 53 40 47 49 51 55 51 51 49 47 48 34
nan nan nan nan nan nan nan nan nan nan nan nan nan nan nan nan nan nan nan nan 48 nan nan nan nan nan nan 50 61 65 62 63 70 64 55 42 45 47 53 54 52 45 43 45
nan nan nan nan nan 17 nan nan nan 21 nan nan nan nan nan nan nan nan nan 40 48 nan nan nan nan nan nan nan 54 66 70 76 68 65 65 65 60 61 59 48 65 69 47 48
nan nan nan nan 12 13 nan 21 25 22 19 nan nan 23 23 24 28 31 32 35 36 47 nan nan nan nan nan nan 55 64 71 72 80 73 66 63 67 65 61 60 57 45 49 52
nan nan nan nan nan 16 17 18 18 18 19 23 17 16 21 22 27 27 29 31 40 nan nan nan nan nan nan 57 52 56 68 72 65 60 57 59 60 51 53 41 39 nan 47 nan
nan 20 12 11 15 14 19 17 14 nan nan 14 15 16 14 24 26 27 36 31 29 nan nan nan nan nan nan nan 41 49 54 58 61 58 51 53 48 nan nan nan nan nan nan nan
nan 17 15 9 9 14 13 10 nan nan nan 14 14 20 26 31 35 nan nan nan nan nan nan nan nan nan nan nan 58 nan nan 55 nan nan nan nan nan 43 nan nan nan nan nan nan
Wind_Direction
nan nan nan nan nan nan nan nan nan nan nan nan nan nan nan 344 4 5 11 nan nan nan nan nan nan nan nan nan nan 139 153 155 161 160 162 162 163 163 162 158 152 138 128 124
nan nan nan nan nan nan nan nan nan nan nan nan nan nan nan nan 3 1 351 3 nan nan nan nan nan nan nan 50 61 101 135 166 161 164 160 161 163 166 162 159 155 129 119 114
nan nan nan nan nan nan nan nan nan nan nan nan nan nan nan 280 320 347 2 350 346 347 nan nan nan 20 nan 59 62 104 129 146 158 154 171 171 170 166 166 163 162 149 130 115
nan nan nan nan nan nan nan nan nan nan nan nan nan nan nan 266 284 326 342 336 314 315 327 nan nan 339 59 11 42 77 178 224 186 167 182 176 177 179 181 180 178 181 151 125
nan nan nan nan nan nan nan nan nan nan nan nan nan nan nan nan nan 269 284 296 299 299 298 314 277 nan 263 316 348 305 249 196 205 202 176 197 177 191 200 200 216 185 221 176
nan nan nan nan nan nan nan nan nan nan nan nan nan nan nan nan nan nan nan nan 255 270 290 293 284 278 268 263 286 292 303 266 227 233 215 201 210 189 208 218 231 229 227 238
nan nan nan nan nan nan nan nan nan nan nan nan nan nan nan nan nan nan nan nan nan nan nan 273 293 285 277 284 276 268 281 298 289 269 249 224 214 216 213 224 227 241 245 247
nan nan nan nan nan nan nan nan nan nan nan nan nan nan nan nan nan nan nan nan nan nan nan nan nan 288 289 295 287 273 270 268 281 288 267 243 228 222 224 234 227 238 243 250
nan nan nan nan nan nan nan nan nan nan nan nan nan nan nan nan nan nan nan nan nan nan nan nan 223 228 288 291 294 291 257 254 263 275 263 256 245 233 235 231 242 236 239 247
nan nan nan nan nan nan nan nan nan nan nan nan nan nan nan nan nan nan nan nan nan nan nan nan nan 221 238 296 288 289 281 260 249 258 261 262 264 251 240 238 237 234 240 244
nan nan nan nan nan nan nan nan nan nan nan nan nan nan nan nan nan nan nan nan nan nan nan nan nan 214 217 271 293 293 289 278 262 253 260 261 266 265 259 253 253 251 248 256
nan nan nan nan nan nan nan nan nan nan nan nan nan nan nan nan nan nan nan nan nan nan nan nan nan 210 210 243 267 281 281 275 261 255 251 261 263 263 266 262 262 260 257 260
nan nan nan nan nan nan nan nan nan nan nan nan nan nan nan nan nan nan nan nan nan nan nan nan nan 217 210 218 246 258 263 269 268 262 262 257 260 262 264 264 261 260 261 265
nan nan nan nan nan nan nan nan nan nan nan nan nan nan nan nan nan nan nan nan nan nan nan nan 221 221 218 208 225 243 257 251 256 262 264 262 267 272 268 260 260 262 262 262
nan nan nan nan nan nan nan nan nan nan nan nan nan nan nan nan nan nan nan nan nan nan nan nan 218 222 221 215 215 228 242 253 254 254 260 264 264 259 260 261 259 262 264 266
nan nan nan nan nan nan nan nan nan nan nan nan nan nan nan nan nan nan nan nan nan nan nan nan 217 218 220 220 217 226 235 238 246 243 254 255 256 256 256 256 260 258 261 263
nan nan nan nan nan nan nan nan nan nan nan nan nan nan nan nan nan nan nan nan nan nan nan 215 213 219 223 219 220 224 228 233 239 239 239 255 261 258 256 255 252 258 262 263
nan nan nan nan nan nan nan nan nan nan nan nan nan nan nan nan nan nan nan nan nan nan nan nan nan 214 220 223 220 223 230 245 249 216 231 255 256 263 256 251 253 258 260 265
nan nan nan nan nan nan nan nan nan nan nan nan nan nan nan nan nan nan nan 250 nan nan nan nan nan 218 215 223 223 224 230 238 257 260 252 246 269 268 267 258 257 253 257 261
nan nan nan nan nan nan nan nan nan nan nan nan nan nan nan nan nan nan nan nan nan nan nan nan nan nan nan 224 228 223 230 237 233 238 244 249 258 267 269 258 261 247 252 260
nan nan nan nan nan nan nan nan nan nan nan nan nan nan nan nan nan nan nan nan 240 nan nan nan nan nan nan 231 228 222 230 240 240 247 249 258 257 258 268 268 253 261 252 247
nan nan nan nan nan 306 nan nan nan 271 nan nan nan nan nan nan nan nan nan 234 238 nan nan nan nan nan nan nan 231 231 232 240 242 246 254 258 263 263 264 279 280 246 246 259
nan nan nan nan 293 264 nan 300 288 285 285 nan nan 281 265 247 236 226 233 239 240 237 nan nan nan nan nan nan 233 233 233 235 239 239 243 245 250 257 260 267 270 266 267 264
nan nan nan nan nan 310 292 303 314 287 287 290 295 272 252 222 207 218 238 244 246 nan nan nan nan nan nan 225 233 234 229 236 241 244 245 245 250 252 248 260 249 nan 259 nan
nan 309 331 340 338 324 319 289 282 nan nan 306 271 254 232 202 197 219 241 242 241 nan nan nan nan nan nan nan 214 229 229 232 240 249 245 246 251 nan nan nan nan nan nan nan
nan 343 348 334 314 310 312 288 nan nan nan 294 280 248 234 223 242 nan nan nan nan nan nan nan nan nan nan nan 202 nan nan 226 nan nan nan nan nan 250 nan nan nan nan nan nan